Year,Month,Day,Hour,Minute,Value (Times are PST for temperature in C)
2010,04,23,00,00,5.20
2010,04,23,00,01,5.20
2010,04,23,00,02,5.20
2010,04,23,00,03,5.20
2010,04,23,00,04,5.10
2010,04,23,00,05,5.10
2010,04,23,00,06,5.20
2010,04,23,00,07,5.20
2010,04,23,00,08,5.20
2010,04,23,00,09,5.20
2010,04,23,00,10,5.20
2010,04,23,00,11,5.20
2010,04,23,00,12,5.20
2010,04,23,00,13,5.20
2010,04,23,00,14,5.20
2010,04,23,00,15,5.20
2010,04,23,00,16,5.10
2010,04,23,00,17,5.10
2010,04,23,00,18,5.10
2010,04,23,00,19,5.20
2010,04,23,00,20,5.10
2010,04,23,00,21,5.20
2010,04,23,00,22,5.20
2010,04,23,00,23,5.20
2010,04,23,00,24,5.20
2010,04,23,00,25,5.20
2010,04,23,00,26,5.20
2010,04,23,00,27,5.20
2010,04,23,00,28,5.20
2010,04,23,00,29,5.20
2010,04,23,00,30,5.20
2010,04,23,00,31,5.20
2010,04,23,00,32,5.20
2010,04,23,00,33,5.20
2010,04,23,00,34,5.20
2010,04,23,00,35,5.20
2010,04,23,00,36,5.20
2010,04,23,00,37,5.20
2010,04,23,00,38,5.20
2010,04,23,00,39,5.20
2010,04,23,00,40,5.20
2010,04,23,00,41,5.20
2010,04,23,00,42,5.20
2010,04,23,00,43,5.20
2010,04,23,00,44,5.20
2010,04,23,00,45,5.20
2010,04,23,00,46,5.20
2010,04,23,00,47,5.20
2010,04,23,00,48,5.20
2010,04,23,00,49,5.20
2010,04,23,00,50,5.20
2010,04,23,00,51,5.20
2010,04,23,00,52,5.20
2010,04,23,00,53,5.20
2010,04,23,00,54,5.20
2010,04,23,00,55,5.20
2010,04,23,00,56,5.20
2010,04,23,00,57,5.20
2010,04,23,00,58,5.20
2010,04,23,00,59,5.20
2010,04,23,01,00,5.20
2010,04,23,01,01,5.20
2010,04,23,01,02,5.20
2010,04,23,01,03,5.20
2010,04,23,01,04,5.20
2010,04,23,01,05,5.20
2010,04,23,01,06,5.20
2010,04,23,01,07,5.20
2010,04,23,01,08,5.30
2010,04,23,01,09,5.30
2010,04,23,01,10,5.30
2010,04,23,01,11,5.30
2010,04,23,01,12,5.30
2010,04,23,01,13,5.30
2010,04,23,01,14,5.30
2010,04,23,01,15,5.30
2010,04,23,01,16,5.30
2010,04,23,01,17,5.30
2010,04,23,01,18,5.30
2010,04,23,01,19,5.30
2010,04,23,01,20,5.30
2010,04,23,01,21,5.30
2010,04,23,01,22,5.30
2010,04,23,01,23,5.30
2010,04,23,01,24,5.30
2010,04,23,01,25,5.30
2010,04,23,01,26,5.40
2010,04,23,01,27,5.40
2010,04,23,01,28,5.40
2010,04,23,01,29,5.40
2010,04,23,01,30,5.40
2010,04,23,01,31,5.50
2010,04,23,01,32,5.50
2010,04,23,01,33,5.50
2010,04,23,01,34,5.60
2010,04,23,01,35,5.60
2010,04,23,01,36,5.70
2010,04,23,01,37,5.70
2010,04,23,01,38,5.70
2010,04,23,01,39,5.80
2010,04,23,01,40,5.80
2010,04,23,01,41,5.80
2010,04,23,01,42,5.90
2010,04,23,01,43,5.90
2010,04,23,01,44,5.90
2010,04,23,01,45,6.00
2010,04,23,01,46,6.00
2010,04,23,01,47,6.00
2010,04,23,01,48,6.10
2010,04,23,01,49,6.10
2010,04,23,01,50,6.10
2010,04,23,01,51,6.20
2010,04,23,01,52,6.20
2010,04,23,01,53,6.20
2010,04,23,01,54,6.20
2010,04,23,01,55,6.30
2010,04,23,01,56,6.30
2010,04,23,01,57,6.30
2010,04,23,01,58,6.30
2010,04,23,01,59,6.30
2010,04,23,02,00,6.30
2010,04,23,02,01,6.30
2010,04,23,02,02,6.30
2010,04,23,02,03,6.40
2010,04,23,02,04,6.40
2010,04,23,02,05,6.40
2010,04,23,02,06,6.40
2010,04,23,02,07,6.50
2010,04,23,02,08,6.50
2010,04,23,02,09,6.50
2010,04,23,02,10,6.50
2010,04,23,02,11,6.50
2010,04,23,02,12,6.50
2010,04,23,02,13,6.50
2010,04,23,02,14,6.50
2010,04,23,02,15,6.60
2010,04,23,02,16,6.50
2010,04,23,02,17,6.60
2010,04,23,02,18,6.60
2010,04,23,02,19,6.60
2010,04,23,02,20,6.60
2010,04,23,02,21,6.60
2010,04,23,02,22,6.60
2010,04,23,02,23,6.60
2010,04,23,02,24,6.70
2010,04,23,02,25,6.70
2010,04,23,02,26,6.70
2010,04,23,02,27,6.70
2010,04,23,02,28,6.70
2010,04,23,02,29,6.70
2010,04,23,02,30,6.80
2010,04,23,02,31,6.80
2010,04,23,02,32,6.80
2010,04,23,02,33,6.80
2010,04,23,02,34,6.80
2010,04,23,02,35,6.90
2010,04,23,02,36,6.90
2010,04,23,02,37,6.90
2010,04,23,02,38,6.90
2010,04,23,02,39,6.90
2010,04,23,02,40,6.90
2010,04,23,02,41,6.90
2010,04,23,02,42,6.90
2010,04,23,02,43,6.90
2010,04,23,02,44,6.90
2010,04,23,02,45,7.00
2010,04,23,02,46,7.00
2010,04,23,02,47,7.00
2010,04,23,02,48,7.00
2010,04,23,02,49,7.00
2010,04,23,02,50,7.00
2010,04,23,02,51,7.00
2010,04,23,02,52,7.00
2010,04,23,02,53,7.00
2010,04,23,02,54,7.00
2010,04,23,02,55,7.10
2010,04,23,02,56,7.10
2010,04,23,02,57,7.10
2010,04,23,02,58,7.10
2010,04,23,02,59,7.10
2010,04,23,03,00,7.10
2010,04,23,03,01,7.10
2010,04,23,03,02,7.10
2010,04,23,03,03,7.10
2010,04,23,03,04,7.10
2010,04,23,03,05,7.10
2010,04,23,03,06,7.10
2010,04,23,03,07,7.10
2010,04,23,03,08,7.20
2010,04,23,03,09,7.20
2010,04,23,03,10,7.20
2010,04,23,03,11,7.20
2010,04,23,03,12,7.20
2010,04,23,03,13,7.20
2010,04,23,03,14,7.20
2010,04,23,03,15,7.20
2010,04,23,03,16,7.20
2010,04,23,03,17,7.20
2010,04,23,03,18,7.20
2010,04,23,03,19,7.20
2010,04,23,03,20,7.20
2010,04,23,03,21,7.20
2010,04,23,03,22,7.20
2010,04,23,03,23,7.20
2010,04,23,03,24,7.20
2010,04,23,03,25,7.20
2010,04,23,03,26,7.20
2010,04,23,03,27,7.20
2010,04,23,03,28,7.20
2010,04,23,03,29,7.20
2010,04,23,03,30,7.20
2010,04,23,03,31,7.20
2010,04,23,03,32,7.20
2010,04,23,03,33,7.20
2010,04,23,03,34,7.20
2010,04,23,03,35,7.20
2010,04,23,03,36,7.20
2010,04,23,03,37,7.20
2010,04,23,03,38,7.20
2010,04,23,03,39,7.20
2010,04,23,03,40,7.20
2010,04,23,03,41,7.20
2010,04,23,03,42,7.20
2010,04,23,03,43,7.20
2010,04,23,03,44,7.20
2010,04,23,03,45,7.20
2010,04,23,03,46,7.20
2010,04,23,03,47,7.20
2010,04,23,03,48,7.30
2010,04,23,03,49,7.20
2010,04,23,03,50,7.20
2010,04,23,03,51,7.20
2010,04,23,03,52,7.20
2010,04,23,03,53,7.20
2010,04,23,03,54,7.20
2010,04,23,03,55,7.20
2010,04,23,03,56,7.20
2010,04,23,03,57,7.20
2010,04,23,03,58,7.20
2010,04,23,03,59,7.20
2010,04,23,04,00,7.20
2010,04,23,04,01,7.20
2010,04,23,04,02,7.20
2010,04,23,04,03,7.20
2010,04,23,04,04,7.20
2010,04,23,04,05,7.20
2010,04,23,04,06,7.20
2010,04,23,04,07,7.20
2010,04,23,04,08,7.20
2010,04,23,04,09,7.20
2010,04,23,04,10,7.20
2010,04,23,04,11,7.20
2010,04,23,04,12,7.20
2010,04,23,04,13,7.20
2010,04,23,04,14,7.20
2010,04,23,04,15,7.20
2010,04,23,04,16,7.20
2010,04,23,04,17,7.20
2010,04,23,04,18,7.20
2010,04,23,04,19,7.20
2010,04,23,04,20,7.20
2010,04,23,04,21,7.20
2010,04,23,04,22,7.20
2010,04,23,04,23,7.20
2010,04,23,04,24,7.20
2010,04,23,04,25,7.20
2010,04,23,04,26,7.20
2010,04,23,04,27,7.20
2010,04,23,04,28,7.20
2010,04,23,04,29,7.20
2010,04,23,04,30,7.20
2010,04,23,04,31,7.20
2010,04,23,04,32,7.20
2010,04,23,04,33,7.20
2010,04,23,04,34,7.20
2010,04,23,04,35,7.20
2010,04,23,04,36,7.20
2010,04,23,04,37,7.20
2010,04,23,04,38,7.20
2010,04,23,04,39,7.20
2010,04,23,04,40,7.20
2010,04,23,04,41,7.20
2010,04,23,04,42,7.20
2010,04,23,04,43,7.10
2010,04,23,04,44,7.20
2010,04,23,04,45,7.10
2010,04,23,04,46,7.10
2010,04,23,04,47,7.10
2010,04,23,04,48,7.20
2010,04,23,04,49,7.20
2010,04,23,04,50,7.20
2010,04,23,04,51,7.10
2010,04,23,04,52,7.20
2010,04,23,04,53,7.10
2010,04,23,04,54,7.20
2010,04,23,04,55,7.20
2010,04,23,04,56,7.10
2010,04,23,04,57,7.20
2010,04,23,04,58,7.10
2010,04,23,04,59,7.20
2010,04,23,05,00,7.10
2010,04,23,05,01,7.20
2010,04,23,05,02,7.20
2010,04,23,05,03,7.10
2010,04,23,05,04,7.10
2010,04,23,05,05,7.10
2010,04,23,05,06,7.10
2010,04,23,05,07,7.10
2010,04,23,05,08,7.10
2010,04,23,05,09,7.10
2010,04,23,05,10,7.10
2010,04,23,05,11,7.10
2010,04,23,05,12,7.10
2010,04,23,05,13,7.10
2010,04,23,05,14,7.10
2010,04,23,05,15,7.10
2010,04,23,05,16,7.10
2010,04,23,05,17,7.10
2010,04,23,05,18,7.10
2010,04,23,05,19,7.10
2010,04,23,05,20,7.10
2010,04,23,05,21,7.10
2010,04,23,05,22,7.10
2010,04,23,05,23,7.10
2010,04,23,05,24,7.10
2010,04,23,05,25,7.10
2010,04,23,05,26,7.10
2010,04,23,05,27,7.10
2010,04,23,05,28,7.10
2010,04,23,05,29,7.10
2010,04,23,05,30,7.10
2010,04,23,05,31,7.10
2010,04,23,05,32,7.10
2010,04,23,05,33,7.10
2010,04,23,05,34,7.10
2010,04,23,05,35,7.10
2010,04,23,05,36,7.00
2010,04,23,05,37,7.00
2010,04,23,05,38,7.00
2010,04,23,05,39,7.00
2010,04,23,05,40,7.00
2010,04,23,05,41,7.00
2010,04,23,05,42,7.00
2010,04,23,05,43,7.00
2010,04,23,05,44,7.00
2010,04,23,05,45,7.00
2010,04,23,05,46,7.00
2010,04,23,05,47,7.00
2010,04,23,05,48,6.90
2010,04,23,05,49,6.90
2010,04,23,05,50,6.90
2010,04,23,05,51,6.90
2010,04,23,05,52,6.90
2010,04,23,05,53,6.90
2010,04,23,05,54,6.90
2010,04,23,05,55,6.90
2010,04,23,05,56,6.90
2010,04,23,05,57,6.90
2010,04,23,05,58,6.90
2010,04,23,05,59,6.90
2010,04,23,06,00,6.90
2010,04,23,06,01,6.90
2010,04,23,06,02,6.90
2010,04,23,06,03,6.90
2010,04,23,06,04,6.90
2010,04,23,06,05,6.90
2010,04,23,06,06,6.90
2010,04,23,06,07,6.90
2010,04,23,06,08,6.80
2010,04,23,06,09,6.80
2010,04,23,06,10,6.80
2010,04,23,06,11,6.80
2010,04,23,06,12,6.80
2010,04,23,06,13,6.80
2010,04,23,06,14,6.80
2010,04,23,06,15,6.80
2010,04,23,06,16,6.80
2010,04,23,06,17,6.80
2010,04,23,06,18,6.80
2010,04,23,06,19,6.80
2010,04,23,06,20,6.80
2010,04,23,06,21,6.80
2010,04,23,06,22,6.90
2010,04,23,06,23,6.90
2010,04,23,06,24,6.90
2010,04,23,06,25,6.90
2010,04,23,06,26,6.90
2010,04,23,06,27,6.90
2010,04,23,06,28,6.90
2010,04,23,06,29,6.90
2010,04,23,06,30,6.90
2010,04,23,06,31,6.90
2010,04,23,06,32,6.90
2010,04,23,06,33,6.90
2010,04,23,06,34,6.90
2010,04,23,06,35,6.90
2010,04,23,06,36,6.90
2010,04,23,06,37,6.90
2010,04,23,06,38,6.90
2010,04,23,06,39,6.90
2010,04,23,06,40,6.90
2010,04,23,06,41,6.90
2010,04,23,06,42,6.90
2010,04,23,06,43,6.90
2010,04,23,06,44,6.90
2010,04,23,06,45,6.90
2010,04,23,06,46,6.90
2010,04,23,06,47,6.90
2010,04,23,06,48,6.90
2010,04,23,06,49,6.90
2010,04,23,06,50,6.90
2010,04,23,06,51,6.90
2010,04,23,06,52,6.90
2010,04,23,06,53,6.90
2010,04,23,06,54,6.90
2010,04,23,06,55,6.90
2010,04,23,06,56,6.90
2010,04,23,06,57,6.90
2010,04,23,06,58,6.90
2010,04,23,06,59,6.90
2010,04,23,07,00,6.90
2010,04,23,07,01,6.90
2010,04,23,07,02,6.90
2010,04,23,07,03,6.90
2010,04,23,07,04,6.90
2010,04,23,07,05,6.90
2010,04,23,07,06,6.90
2010,04,23,07,07,6.90
2010,04,23,07,08,6.90
2010,04,23,07,09,6.90
2010,04,23,07,10,6.90
2010,04,23,07,11,6.90
2010,04,23,07,12,6.90
2010,04,23,07,13,6.90
2010,04,23,07,14,6.90
2010,04,23,07,15,6.90
2010,04,23,07,16,6.90
2010,04,23,07,17,6.90
2010,04,23,07,18,6.90
2010,04,23,07,19,6.90
2010,04,23,07,20,7.00
2010,04,23,07,21,7.00
2010,04,23,07,22,7.00
2010,04,23,07,23,7.00
2010,04,23,07,24,7.00
2010,04,23,07,25,7.00
2010,04,23,07,26,7.00
2010,04,23,07,27,7.00
2010,04,23,07,28,7.00
2010,04,23,07,29,7.00
2010,04,23,07,30,7.00
2010,04,23,07,31,7.00
2010,04,23,07,32,7.10
2010,04,23,07,33,7.10
2010,04,23,07,34,7.10
2010,04,23,07,35,7.10
2010,04,23,07,36,7.10
2010,04,23,07,37,7.10
2010,04,23,07,38,7.10
2010,04,23,07,39,7.10
2010,04,23,07,40,7.10
2010,04,23,07,41,7.10
2010,04,23,07,42,7.20
2010,04,23,07,43,7.20
2010,04,23,07,44,7.20
2010,04,23,07,45,7.20
2010,04,23,07,46,7.20
2010,04,23,07,47,7.20
2010,04,23,07,48,7.20
2010,04,23,07,49,7.20
2010,04,23,07,50,7.30
2010,04,23,07,51,7.30
2010,04,23,07,52,7.30
2010,04,23,07,53,7.30
2010,04,23,07,54,7.30
2010,04,23,07,55,7.30
2010,04,23,07,56,7.40
2010,04,23,07,57,7.40
2010,04,23,07,58,7.40
2010,04,23,07,59,7.40
2010,04,23,08,00,7.40
2010,04,23,08,01,7.40
2010,04,23,08,02,7.50
2010,04,23,08,03,7.50
2010,04,23,08,04,7.50
2010,04,23,08,05,7.50
2010,04,23,08,06,7.60
2010,04,23,08,07,7.60
2010,04,23,08,08,7.60
2010,04,23,08,09,7.60
2010,04,23,08,10,7.70
2010,04,23,08,11,7.70
2010,04,23,08,12,7.70
2010,04,23,08,13,7.70
2010,04,23,08,14,7.80
2010,04,23,08,15,7.80
2010,04,23,08,16,7.80
2010,04,23,08,17,7.80
2010,04,23,08,18,7.90
2010,04,23,08,19,7.90
2010,04,23,08,20,7.90
2010,04,23,08,21,8.00
2010,04,23,08,22,8.00
2010,04,23,08,23,8.10
2010,04,23,08,24,8.10
2010,04,23,08,25,8.20
2010,04,23,08,26,8.20
2010,04,23,08,27,8.20
2010,04,23,08,28,8.20
2010,04,23,08,29,8.30
2010,04,23,08,30,8.30
2010,04,23,08,31,8.30
2010,04,23,08,32,8.30
2010,04,23,08,33,8.40
2010,04,23,08,34,8.40
2010,04,23,08,35,8.40
2010,04,23,08,36,8.50
2010,04,23,08,37,8.50
2010,04,23,08,38,8.60
2010,04,23,08,39,8.60
2010,04,23,08,40,8.60
2010,04,23,08,41,8.60
2010,04,23,08,42,8.60
2010,04,23,08,43,8.60
2010,04,23,08,44,8.60
2010,04,23,08,45,8.60
2010,04,23,08,46,8.60
2010,04,23,08,47,8.60
2010,04,23,08,48,8.60
2010,04,23,08,49,8.70
2010,04,23,08,50,8.70
2010,04,23,08,51,8.70
2010,04,23,08,52,8.70
2010,04,23,08,53,8.70
2010,04,23,08,54,8.70
2010,04,23,08,55,8.70
2010,04,23,08,56,8.70
2010,04,23,08,57,8.70
2010,04,23,08,58,8.70
2010,04,23,08,59,8.70
2010,04,23,09,00,8.70
2010,04,23,09,01,8.70
2010,04,23,09,02,8.70
2010,04,23,09,03,8.70
2010,04,23,09,04,8.70
2010,04,23,09,05,8.70
2010,04,23,09,06,8.80
2010,04,23,09,07,8.80
2010,04,23,09,08,8.80
2010,04,23,09,09,8.70
2010,04,23,09,10,8.70
2010,04,23,09,11,8.70
2010,04,23,09,12,8.70
2010,04,23,09,13,8.80
2010,04,23,09,14,8.80
2010,04,23,09,15,8.80
2010,04,23,09,16,8.80
2010,04,23,09,17,8.80
2010,04,23,09,18,8.80
2010,04,23,09,19,8.80
2010,04,23,09,20,8.80
2010,04,23,09,21,8.80
2010,04,23,09,22,8.80
2010,04,23,09,23,8.80
2010,04,23,09,24,8.80
2010,04,23,09,25,8.90
2010,04,23,09,26,8.90
2010,04,23,09,27,8.90
2010,04,23,09,28,8.90
2010,04,23,09,29,9.00
2010,04,23,09,30,9.00
2010,04,23,09,31,9.00
2010,04,23,09,32,9.10
2010,04,23,09,33,9.10
2010,04,23,09,34,9.10
2010,04,23,09,35,9.20
2010,04,23,09,36,9.20
2010,04,23,09,37,9.20
2010,04,23,09,38,9.20
2010,04,23,09,39,9.30
2010,04,23,09,40,9.30
2010,04,23,09,41,9.30
2010,04,23,09,42,9.30
2010,04,23,09,43,9.40
2010,04,23,09,44,9.40
2010,04,23,09,45,9.40
2010,04,23,09,46,9.40
2010,04,23,09,47,9.40
2010,04,23,09,48,9.40
2010,04,23,09,49,9.40
2010,04,23,09,50,9.40
2010,04,23,09,51,9.40
2010,04,23,09,52,9.30
2010,04,23,09,53,9.30
2010,04,23,09,54,9.30
2010,04,23,09,55,9.30
2010,04,23,09,56,9.30
2010,04,23,09,57,9.20
2010,04,23,09,58,9.20
2010,04,23,09,59,9.20
2010,04,23,10,00,9.20
2010,04,23,10,01,9.20
2010,04,23,10,02,9.20
2010,04,23,10,03,9.20
2010,04,23,10,04,9.20
2010,04,23,10,05,9.20
2010,04,23,10,06,9.20
2010,04,23,10,07,9.20
2010,04,23,10,08,9.20
2010,04,23,10,09,9.20
2010,04,23,10,10,9.30
2010,04,23,10,11,9.30
2010,04,23,10,12,9.30
2010,04,23,10,13,9.30
2010,04,23,10,14,9.40
2010,04,23,10,15,9.30
2010,04,23,10,16,9.30
2010,04,23,10,17,9.30
2010,04,23,10,18,9.30
2010,04,23,10,19,9.40
2010,04,23,10,20,9.40
2010,04,23,10,21,9.40
2010,04,23,10,22,9.40
2010,04,23,10,23,9.40
2010,04,23,10,24,9.40
2010,04,23,10,25,9.40
2010,04,23,10,26,9.40
2010,04,23,10,27,9.50
2010,04,23,10,28,9.50
2010,04,23,10,29,9.60
2010,04,23,10,30,9.60
2010,04,23,10,31,9.70
2010,04,23,10,32,9.70
2010,04,23,10,33,9.60
2010,04,23,10,34,9.60
2010,04,23,10,35,9.60
2010,04,23,10,36,9.60
2010,04,23,10,37,9.60
2010,04,23,10,38,9.60
2010,04,23,10,39,9.60
2010,04,23,10,40,9.60
2010,04,23,10,41,9.60
2010,04,23,10,42,9.50
2010,04,23,10,43,9.50
2010,04,23,10,44,9.50
2010,04,23,10,45,9.50
2010,04,23,10,46,9.50
2010,04,23,10,47,9.40
2010,04,23,10,48,9.40
2010,04,23,10,49,9.50
2010,04,23,10,50,9.40
2010,04,23,10,51,9.40
2010,04,23,10,52,9.40
2010,04,23,10,53,9.40
2010,04,23,10,54,9.40
2010,04,23,10,55,9.40
2010,04,23,10,56,9.40
2010,04,23,10,57,9.40
2010,04,23,10,58,9.40
2010,04,23,10,59,9.40
2010,04,23,11,00,9.40
2010,04,23,11,01,9.40
2010,04,23,11,02,9.40
2010,04,23,11,03,9.40
2010,04,23,11,04,9.40
2010,04,23,11,05,9.40
2010,04,23,11,06,9.40
2010,04,23,11,07,9.40
2010,04,23,11,08,9.40
2010,04,23,11,09,9.40
2010,04,23,11,10,9.40
2010,04,23,11,11,9.40
2010,04,23,11,12,9.40
2010,04,23,11,13,9.40
2010,04,23,11,14,9.50
2010,04,23,11,15,9.50
2010,04,23,11,16,9.50
2010,04,23,11,17,9.50
2010,04,23,11,18,9.50
2010,04,23,11,19,9.60
2010,04,23,11,20,9.60
2010,04,23,11,21,9.60
2010,04,23,11,22,9.60
2010,04,23,11,23,9.70
2010,04,23,11,24,9.70
2010,04,23,11,25,9.70
2010,04,23,11,26,9.70
2010,04,23,11,27,9.70
2010,04,23,11,28,9.70
2010,04,23,11,29,9.70
2010,04,23,11,30,9.70
2010,04,23,11,31,9.70
2010,04,23,11,32,9.70
2010,04,23,11,33,9.70
2010,04,23,11,34,9.60
2010,04,23,11,35,9.60
2010,04,23,11,36,9.50
2010,04,23,11,37,9.50
2010,04,23,11,38,9.40
2010,04,23,11,39,9.30
2010,04,23,11,40,9.30
2010,04,23,11,41,9.30
2010,04,23,11,42,9.30
2010,04,23,11,43,9.30
2010,04,23,11,44,9.30
2010,04,23,11,45,9.30
2010,04,23,11,46,9.40
2010,04,23,11,47,9.40
2010,04,23,11,48,9.40
2010,04,23,11,49,9.40
2010,04,23,11,50,9.50
2010,04,23,11,51,9.50
2010,04,23,11,52,9.50
2010,04,23,11,53,9.50
2010,04,23,11,54,9.40
2010,04,23,11,55,9.40
2010,04,23,11,56,9.40
2010,04,23,11,57,9.30
2010,04,23,11,58,9.30
2010,04,23,11,59,9.30
2010,04,23,12,00,9.20
2010,04,23,12,01,9.20
2010,04,23,12,02,9.20
2010,04,23,12,03,9.20
2010,04,23,12,04,9.20
2010,04,23,12,05,9.20
2010,04,23,12,06,9.10
2010,04,23,12,07,9.10
2010,04,23,12,08,9.00
2010,04,23,12,09,9.00
2010,04,23,12,10,8.90
2010,04,23,12,11,8.90
2010,04,23,12,12,8.80
2010,04,23,12,13,8.70
2010,04,23,12,14,8.70
2010,04,23,12,15,8.60
2010,04,23,12,16,8.60
2010,04,23,12,17,8.50
2010,04,23,12,18,8.40
2010,04,23,12,19,8.40
2010,04,23,12,20,8.40
2010,04,23,12,21,8.30
2010,04,23,12,22,8.30
2010,04,23,12,23,8.20
2010,04,23,12,24,8.20
2010,04,23,12,25,8.10
2010,04,23,12,26,8.10
2010,04,23,12,27,8.00
2010,04,23,12,28,7.90
2010,04,23,12,29,7.90
2010,04,23,12,30,7.80
2010,04,23,12,31,7.80
2010,04,23,12,32,7.70
2010,04,23,12,33,7.70
2010,04,23,12,34,7.60
2010,04,23,12,35,7.60
2010,04,23,12,36,7.60
2010,04,23,12,37,7.60
2010,04,23,12,38,7.60
2010,04,23,12,39,7.50
2010,04,23,12,40,7.50
2010,04,23,12,41,7.40
2010,04,23,12,42,7.40
2010,04,23,12,43,7.40
2010,04,23,12,44,7.40
2010,04,23,12,45,7.30
2010,04,23,12,46,7.30
2010,04,23,12,47,7.30
2010,04,23,12,48,7.30
2010,04,23,12,49,7.30
2010,04,23,12,50,7.30
2010,04,23,12,51,7.30
2010,04,23,12,52,7.30
2010,04,23,12,53,7.40
2010,04,23,12,54,7.40
2010,04,23,12,55,7.40
2010,04,23,12,56,7.40
2010,04,23,12,57,7.40
2010,04,23,12,58,7.40
2010,04,23,12,59,7.40
2010,04,23,13,00,7.40
2010,04,23,13,01,7.40
2010,04,23,13,02,7.40
2010,04,23,13,03,7.40
2010,04,23,13,04,7.40
2010,04,23,13,05,7.40
2010,04,23,13,06,7.40
2010,04,23,13,07,7.40
2010,04,23,13,08,7.40
2010,04,23,13,09,7.40
2010,04,23,13,10,7.40
2010,04,23,13,11,7.50
2010,04,23,13,12,7.50
2010,04,23,13,13,7.50
2010,04,23,13,14,7.50
2010,04,23,13,15,7.50
2010,04,23,13,16,7.40
2010,04,23,13,17,7.40
2010,04,23,13,18,7.40
2010,04,23,13,19,7.40
2010,04,23,13,20,7.40
2010,04,23,13,21,7.30
2010,04,23,13,22,7.30
2010,04,23,13,23,7.30
2010,04,23,13,24,7.30
2010,04,23,13,25,7.30
2010,04,23,13,26,7.20
2010,04,23,13,27,7.20
2010,04,23,13,28,7.20
2010,04,23,13,29,7.20
2010,04,23,13,30,7.10
2010,04,23,13,31,7.10
2010,04,23,13,32,7.10
2010,04,23,13,33,7.10
2010,04,23,13,34,7.10
2010,04,23,13,35,7.10
2010,04,23,13,36,7.20
2010,04,23,13,37,7.20
2010,04,23,13,38,7.20
2010,04,23,13,39,7.20
2010,04,23,13,40,7.20
2010,04,23,13,41,7.20
2010,04,23,13,42,7.20
2010,04,23,13,43,7.20
2010,04,23,13,44,7.20
2010,04,23,13,45,7.20
2010,04,23,13,46,7.20
2010,04,23,13,47,7.20
2010,04,23,13,48,7.20
2010,04,23,13,49,7.20
2010,04,23,13,50,7.20
2010,04,23,13,51,7.20
2010,04,23,13,52,7.20
2010,04,23,13,53,7.20
2010,04,23,13,54,7.20
2010,04,23,13,55,7.20
2010,04,23,13,56,7.20
2010,04,23,13,57,7.20
2010,04,23,13,58,7.30
2010,04,23,13,59,7.30
2010,04,23,14,00,7.30
2010,04,23,14,01,7.30
2010,04,23,14,02,7.30
2010,04,23,14,03,7.30
2010,04,23,14,04,7.30
2010,04,23,14,05,7.30
2010,04,23,14,06,7.40
2010,04,23,14,07,7.40
2010,04,23,14,08,7.40
2010,04,23,14,09,7.40
2010,04,23,14,10,7.40
2010,04,23,14,11,7.40
2010,04,23,14,12,7.40
2010,04,23,14,13,7.40
2010,04,23,14,14,7.30
2010,04,23,14,15,7.30
2010,04,23,14,16,7.30
2010,04,23,14,17,7.30
2010,04,23,14,18,7.30
2010,04,23,14,19,7.30
2010,04,23,14,20,7.30
2010,04,23,14,21,7.30
2010,04,23,14,22,7.30
2010,04,23,14,23,7.30
2010,04,23,14,24,7.20
2010,04,23,14,25,7.20
2010,04,23,14,26,7.20
2010,04,23,14,27,7.20
2010,04,23,14,28,7.20
2010,04,23,14,29,7.20
2010,04,23,14,30,7.20
2010,04,23,14,31,7.10
2010,04,23,14,32,7.10
2010,04,23,14,33,7.10
2010,04,23,14,34,7.10
2010,04,23,14,35,7.10
2010,04,23,14,36,7.00
2010,04,23,14,37,7.00
2010,04,23,14,38,7.00
2010,04,23,14,39,6.90
2010,04,23,14,40,6.90
2010,04,23,14,41,6.80
2010,04,23,14,42,6.80
2010,04,23,14,43,6.80
2010,04,23,14,44,6.80
2010,04,23,14,45,6.80
2010,04,23,14,46,6.80
2010,04,23,14,47,6.80
2010,04,23,14,48,6.80
2010,04,23,14,49,6.80
2010,04,23,14,50,6.80
2010,04,23,14,51,6.80
2010,04,23,14,52,6.70
2010,04,23,14,53,6.70
2010,04,23,14,54,6.70
2010,04,23,14,55,6.70
2010,04,23,14,56,6.80
2010,04,23,14,57,6.70
2010,04,23,14,58,6.70
2010,04,23,14,59,6.70
2010,04,23,15,00,6.70
2010,04,23,15,01,6.70
2010,04,23,15,02,6.70
2010,04,23,15,03,6.70
2010,04,23,15,04,6.70
2010,04,23,15,05,6.70
2010,04,23,15,06,6.70
2010,04,23,15,07,6.70
2010,04,23,15,08,6.70
2010,04,23,15,09,6.70
2010,04,23,15,10,6.80
2010,04,23,15,11,6.80
2010,04,23,15,12,6.80
2010,04,23,15,13,6.80
2010,04,23,15,14,6.80
2010,04,23,15,15,6.80
2010,04,23,15,16,6.80
2010,04,23,15,17,6.80
2010,04,23,15,18,6.80
2010,04,23,15,19,6.80
2010,04,23,15,20,6.80
2010,04,23,15,21,6.80
2010,04,23,15,22,6.90
2010,04,23,15,23,6.80
2010,04,23,15,24,6.80
2010,04,23,15,25,6.80
2010,04,23,15,26,6.90
2010,04,23,15,27,6.80
2010,04,23,15,28,6.80
2010,04,23,15,29,6.80
2010,04,23,15,30,6.80
2010,04,23,15,31,6.80
2010,04,23,15,32,6.80
2010,04,23,15,33,6.80
2010,04,23,15,34,6.80
2010,04,23,15,35,6.80
2010,04,23,15,36,6.80
2010,04,23,15,37,6.80
2010,04,23,15,38,6.80
2010,04,23,15,39,6.80
2010,04,23,15,40,6.80
2010,04,23,15,41,6.80
2010,04,23,15,42,6.80
2010,04,23,15,43,6.90
2010,04,23,15,44,6.90
2010,04,23,15,45,6.90
2010,04,23,15,46,6.90
2010,04,23,15,47,6.90
2010,04,23,15,48,6.80
2010,04,23,15,49,6.90
2010,04,23,15,50,6.90
2010,04,23,15,51,6.90
2010,04,23,15,52,6.90
2010,04,23,15,53,6.90
2010,04,23,15,54,6.90
2010,04,23,15,55,6.90
2010,04,23,15,56,6.90
2010,04,23,15,57,6.90
2010,04,23,15,58,6.90
2010,04,23,15,59,7.00
2010,04,23,16,00,7.00
2010,04,23,16,01,7.00
2010,04,23,16,02,7.00
2010,04,23,16,03,7.00
2010,04,23,16,04,7.10
2010,04,23,16,05,7.10
2010,04,23,16,06,7.00
2010,04,23,16,07,7.10
2010,04,23,16,08,7.10
2010,04,23,16,09,7.10
2010,04,23,16,10,7.10
2010,04,23,16,11,7.10
2010,04,23,16,12,7.10
2010,04,23,16,13,7.10
2010,04,23,16,14,7.10
2010,04,23,16,15,7.10
2010,04,23,16,16,7.10
2010,04,23,16,17,7.10
2010,04,23,16,18,7.10
2010,04,23,16,19,7.10
2010,04,23,16,20,7.10
2010,04,23,16,21,7.10
2010,04,23,16,22,7.10
2010,04,23,16,23,7.10
2010,04,23,16,24,7.10
2010,04,23,16,25,7.10
2010,04,23,16,26,7.10
2010,04,23,16,27,7.10
2010,04,23,16,28,7.10
2010,04,23,16,29,7.10
2010,04,23,16,30,7.20
2010,04,23,16,31,7.20
2010,04,23,16,32,7.20
2010,04,23,16,33,7.20
2010,04,23,16,34,7.20
2010,04,23,16,35,7.20
2010,04,23,16,36,7.20
2010,04,23,16,37,7.30
2010,04,23,16,38,7.30
2010,04,23,16,39,7.30
2010,04,23,16,40,7.30
2010,04,23,16,41,7.30
2010,04,23,16,42,7.30
2010,04,23,16,43,7.30
2010,04,23,16,44,7.30
2010,04,23,16,45,7.30
2010,04,23,16,46,7.30
2010,04,23,16,47,7.30
2010,04,23,16,48,7.30
2010,04,23,16,49,7.30
2010,04,23,16,50,7.40
2010,04,23,16,51,7.40
2010,04,23,16,52,7.40
2010,04,23,16,53,7.40
2010,04,23,16,54,7.40
2010,04,23,16,55,7.40
2010,04,23,16,56,7.40
2010,04,23,16,57,7.40
2010,04,23,16,58,7.40
2010,04,23,16,59,7.40
2010,04,23,17,00,7.40
2010,04,23,17,01,7.40
2010,04,23,17,02,7.40
2010,04,23,17,03,7.40
2010,04,23,17,04,7.40
2010,04,23,17,05,7.50
2010,04,23,17,06,7.50
2010,04,23,17,07,7.50
2010,04,23,17,08,7.50
2010,04,23,17,09,7.50
2010,04,23,17,10,7.60
2010,04,23,17,11,7.60
2010,04,23,17,12,7.60
2010,04,23,17,13,7.60
2010,04,23,17,14,7.60
2010,04,23,17,15,7.60
2010,04,23,17,16,7.60
2010,04,23,17,17,7.60
2010,04,23,17,18,7.60
2010,04,23,17,19,7.60
2010,04,23,17,20,7.60
2010,04,23,17,21,7.70
2010,04,23,17,22,7.70
2010,04,23,17,23,7.70
2010,04,23,17,24,7.70
2010,04,23,17,25,7.70
2010,04,23,17,26,7.70
2010,04,23,17,27,7.70
2010,04,23,17,28,7.70
2010,04,23,17,29,7.70
2010,04,23,17,30,7.70
2010,04,23,17,31,7.70
2010,04,23,17,32,7.60
2010,04,23,17,33,7.60
2010,04,23,17,34,7.60
2010,04,23,17,35,7.60
2010,04,23,17,36,7.60
2010,04,23,17,37,7.60
2010,04,23,17,38,7.50
2010,04,23,17,39,7.50
2010,04,23,17,40,7.50
2010,04,23,17,41,7.40
2010,04,23,17,42,7.40
2010,04,23,17,43,7.40
2010,04,23,17,44,7.40
2010,04,23,17,45,7.40
2010,04,23,17,46,7.40
2010,04,23,17,47,7.40
2010,04,23,17,48,7.50
2010,04,23,17,49,7.50
2010,04,23,17,50,7.60
2010,04,23,17,51,7.60
2010,04,23,17,52,7.60
2010,04,23,17,53,7.60
2010,04,23,17,54,7.60
2010,04,23,17,55,7.70
2010,04,23,17,56,7.70
2010,04,23,17,57,7.70
2010,04,23,17,58,7.70
2010,04,23,17,59,7.70
2010,04,23,18,00,7.70
2010,04,23,18,01,7.70
2010,04,23,18,02,7.70
2010,04,23,18,03,7.70
2010,04,23,18,04,7.80
2010,04,23,18,05,7.80
2010,04,23,18,06,7.80